Regional Weather Roundup
Issued by NWS

Home | Current Version | Previous Version | Graphics & Text | Print | Product List | Glossary On
Versions: 1 2 3 4 5 6 7 8 9 10 11 12 13 14 15 16 17 18 19 20 21 22 23 24 25 26 27 28 29 30 31 32 33 34 35 36 37 38 39 40 41 42 43 44 45 46 47 48 49 50
000
ASUS43 KMPX 222101
RWRMN
WEATHER ROUNDUP FOR MINNESOTA
NATIONAL WEATHER SERVICE TWIN CITIES/CHANHASSEN MN
400 PM CDT FRI SEP 22 2017


NOTE: "FAIR" INDICATES FEW OR NO CLOUDS BELOW 12,000 FEET WITH NO
SIGNIFICANT WEATHER AND/OR OBSTRUCTIONS TO VISIBILITY. N/A MEANS
CURRENT SKY AND/OR WEATHER CONDITIONS ARE NOT AVAILABLE.

MNZ060>063-068>070-222200-
   Twin Cities Metro

CITY           SKY/WX    TMP DP  RH WIND       PRES   REMARKS
TWIN CITIES    MOSUNNY   94  71  47 S21       29.79F HX 101
ST PAUL        MOSUNNY   91  72  53 SE18G26   29.79F HX  98
CRYSTAL        SUNNY     92  69  47 S17G23    29.77F HX  97
BLAINE         MOSUNNY   93  72  49 S15G21    29.79F HX 100
LAKEVILLE      SUNNY     91  72  52 S12G18    29.80F HX  98
EDEN PRAIRIE   SUNNY     93  72  50 S13G24    29.78F HX 101
SOUTH ST PAUL  SUNNY     92  68  44 S16G24    29.80S HX  96
LAKE ELMO      FAIR      91  72  52 S20       29.82S HX  98
$$
MNZ001>005-007-008-013>017-022>024-027-028-222200-
   Northwest Minnesota

CITY           SKY/WX    TMP DP  RH WIND       PRES   REMARKS
BEMIDJI        CLOUDY    74  69  84 SE12      29.73S
HALLOCK          N/A     72  54  53 NE13      29.74F
ROSEAU         PTSUNNY   72  63  73 NE14      29.76S
WARROAD        CLOUDY    70  63  78 NE13      29.78R
CROOKSTON      MOSUNNY   79  66  65 NE9       29.66F
FOSSTON        MOSUNNY   77  70  78 SE6       29.70F
DETROIT LAKES  MOSUNNY   81  70  69 S16G24    29.71S
MOORHEAD       MOSUNNY   86  72  62 S18       29.64F HX  92
PARK RAPIDS    CLOUDY    82  73  74 S13       29.73S
MAHNOMEN       MOCLDY    81  73  75 S8        29.68F
$$
MNZ006-009>011-018-025>026-222200-
   North Central Minnesota

CITY           SKY/WX    TMP DP  RH WIND       PRES   REMARKS
BAUDETTE       CLOUDY    73  66  78 NE14      29.74F
FLAG ISLAND    CLOUDY    70  57  64 N10       29.78F
INTL FALLS     MOSUNNY   75  66  73 E12       29.78S
WASKISH        CLOUDY    81  68  65 SE12G21   29.72F
BIG FORK       CLOUDY    75  68  78 SE10      29.77F
LONGVILLE      CLOUDY    79  72  78 SE13      29.74F
GRAND RAPIDS   CLOUDY    76  71  85 SE14      29.78F
CRANE LAKE     SUNNY     79  63  57 SE3       29.81F
ORR            CLOUDY    79  64  61 SE7       29.77F
COOK           CLOUDY    77  68  73 SE6       29.81F
WALKER         CLOUDY    74  70  87 SE3       29.74S
$$
MNZ012-019>021-037-222200-
   Northeast Minnesota

CITY           SKY/WX    TMP DP  RH WIND       PRES   REMARKS
DULUTH         MOSUNNY   77  71  82 S10       29.83F
ELY            CLOUDY    79  64  61 S7        29.83F
HIBBING        CLOUDY    75  69  81 SE7       29.80F
EVELETH        MOSUNNY   78  66  67 S10       29.83F
DULUTH HARBOR  SUNNY     70  66  88 NE7       29.82F
TWO HARBORS    SUNNY     79  70  73 S6        29.83F
SILVER BAY     MOSUNNY   79  66  65 SW7       29.84S
GRAND MARAIS     N/A     70  63  78 E5        29.84F
G MARAIS ARPRT CLOUDY    70  57  64 CALM      29.92F
$$
MNZ029>031-032-039>041-046>048-054>057-064-222200-
   West Central Minnesota

CITY           SKY/WX    TMP DP  RH WIND       PRES   REMARKS
FERGUS FALLS   MOSUNNY   82  72  69 SE15      29.66F
WHEATON        MOSUNNY   90  66  45 S10G22    29.65F HX  92
MORRIS         SUNNY     91  70  49 S16       29.66F HX  97
ALEXANDRIA     MOSUNNY   87  72  60 SE17      29.73F HX  93
ELBOW LAKE     PTSUNNY   84  74  72 E16G23    29.68F HAZE    HX  91
WADENA         MOSUNNY   82  72  69 S17G26    29.72F
GLENWOOD       SUNNY     88  72  58 SE20      29.73F HX  94
APPLETON       SUNNY     91  68  46 S6        29.67S HX  95
BENSON         MOSUNNY   90  70  51 S17G26    29.69F HX  95
ORTONVILLE     SUNNY     90  70  51 N10G21    29.66S HX  95
MADISON        SUNNY     93  72  49 S15G21    29.67S HX 100
WILLMAR        FAIR      91  72  52 S8G22     29.73S HX  98
$$
MNZ033>034-036-042>043-049>051-058-059-222200-
   Central Minnesota

CITY           SKY/WX    TMP DP  RH WIND       PRES   REMARKS
ST CLOUD       SUNNY     89  75  63 SE16      29.75F HX  99
SAUK CENTRE    FAIR      86  73  66 SE17      29.74S HX  93
PAYNESVILLE    SUNNY     88  72  58 SE14G21   29.75F HX  94
AITKIN         MOSUNNY   82  72  69 SE17G25   29.76F
PINE RIVER     PTSUNNY   79  70  73 SE9G16    29.77F
BRAINERD       MOSUNNY   81  71  71 S13G28    29.75F
STAPLES        MOSUNNY   82  72  69 S10G21    29.74R
LITTLE FALLS   SUNNY     84  64  51 SE15G26   29.75F
LITCHFIELD     MOSUNNY   91  72  52 SE8G17    29.75F HX  98
BUFFALO        SUNNY     90  69  49 SE13G22   29.78F HX  94
MAPLE LAKE     SUNNY     90  74  58 S8G16     29.77F HX  99
HUTCHINSON     SUNNY     91  74  56 S9G20     29.76F HX 100
$$
MNZ037-044-045-052-053-222200-
   East Central Minnesota

CITY           SKY/WX    TMP DP  RH WIND       PRES   REMARKS
PRINCETON      SUNNY     91  73  55 SE14      29.78F HX 100
MORA           MOSUNNY   86  72  62 SE8G16    29.81F HX  92
RUSH CITY      SUNNY     88  71  56 S9G17     29.80F HX  94
MOOSE LAKE     MOSUNNY   81  72  74 SE3       29.80F
HINCKLEY       FAIR      86  73  66 S9G17     29.81S HX  93
CLOQUET        PTSUNNY   79  70  73 SE7       29.83F
MCGREGOR       PTSUNNY   81  72  74 SE9       29.79F
$$
MNZ071>073-080-081-089-090-097-098-222200-
   Southwest Minnesota

CITY           SKY/WX    TMP DP  RH WIND       PRES   REMARKS
MONTEVIDEO     SUNNY     93  70  46 S13G20    29.69S HX  99
GRANITE FALLS  SUNNY     92  72  51 S16G25    29.71S HX 100
CANBY          SUNNY     90  68  47 S15G23    29.69F HX  94
MARSHALL       SUNNY     92  70  48 S23G29    29.70S HX  97
REDWOOD FALLS  LGT RAIN  92  69  47 S22G28    29.72F HX  97
OLIVIA         SUNNY     90  70  51 S14G25    29.73S HX  95
PIPESTONE      SUNNY     88  70  55 S20G26    29.74S HX  92
WORTHINGTON    SUNNY     91  70  49 S18G28    29.77F HX  96
JACKSON        SUNNY     91  66  43 S21G29    29.80S HX  94
TRACY          SUNNY     90  71  53 S21G28    29.73F HX  96
SLAYTON        SUNNY     90  61  38 S20G29    29.77S HX  90
$$
MNZ065>067-074>077-082>085-091>093-222200-
   South Central Minnesota

CITY           SKY/WX    TMP DP  RH WIND       PRES   REMARKS
MANKATO        SUNNY     91  72  53 S21G28    29.78F HX  98
NEW ULM        SUNNY     91  68  46 S21G26    29.75F HX  95
ST JAMES       SUNNY     93  68  43 SE23G30   29.77F HX  97
FAIRMONT       SUNNY     92  71  50 S24G36    29.79F HX  98
GLENCOE        SUNNY     93  74  54 SE10G21   29.77S HX 104
FARIBAULT      SUNNY     91  70  49 S21G26    29.82S HX  97
OWATONNA       SUNNY     91  70  49 S21G30    29.83F HX  97
WASECA         SUNNY     91  70  49 S18G26    29.84S HX  97
ALBERT LEA     SUNNY     93  70  46 S17G25    29.85F HX  99
$$
MNZ078>079-086>088-094>096-222200-
   Southeast Minnesota

CITY           SKY/WX    TMP DP  RH WIND       PRES   REMARKS
ROCHESTER      SUNNY     90  67  46 S20G31    29.89S HX  93
RED WING       SUNNY     93  61  33 S12G24    29.81S HX  93
STANTON        SUNNY     93  68  44 S20       29.80S HX  97
DODGE CENTER   SUNNY     91  63  38 S23G30    29.87S HX  92
WINONA         SUNNY     95  64  36 S8G16     29.87S HX  97
AUSTIN         SUNNY     90  64  43 S15G25    29.88S HX  91
PRESTON        SUNNY     90  64  41 S21G29    29.91F HX  91
$$
ABBREVIATIONS USED IN REMARKS
   TC - TEMPERATURES IN CELSIUS
  WCI - WIND CHILL INDEX
   HX - HEAT INDEX
  VSB - VISIBILITY
$$




USA.gov is the U.S. government's official web portal to all federal, state and local government web resources and services.